Home > Weather > Virudhunagar > Past weeks

Flag for India Weather for the Past 2 Weeks in Virudhunagar, Tamil Nadu, India

Now
104 °F

Passing clouds.


Feels Like: 111 °F
Forecast: 82 / 104 °F
Wind: 5 mph from Southeast

Location: Tiruchchirapalli

Current Time: May 2, 2016 at 5:22:24 PM

Latest Report: May 2, 2016 at 4:30 PM


Visibility: N/A

Pressure: 29.65 "Hg

Humidity: 31%

Dew Point: 68 °F

Location of VirudhunagarLocation

Historic Weather in Virudhunagar — Graph

°F

Virudhunagar Temperature Yesterday

Maximum temperature yesterday: 104 °F (at 2:30 PM)
Minimum temperature yesterday: 82 °F (at 3:30 AM)
Average temperature yesterday: 92 °F

High & Low Weather Summary for the Past Weeks

 TemperatureHumidityPressure
High108 °F (Apr 22, 3:00 PM)84% (Apr 18, 6:00 AM)29.89 "Hg (Apr 18, 6:00 AM)
Low82 °F (Apr 18, 6:00 AM)28% (Apr 29, 3:30 PM)29.56 "Hg (Apr 24, 3:00 PM)
Average93 °F57%29.75 "Hg
* Reported Apr 17 4:30 PM — May 2 4:30 PM, Virudhunagar, Weather by CustomWeather, © 2016

Note: Actual official high and low records may vary slightly from our data, if they occured in-between our weather recording intervals... More about our weather records

Advertising

Virudhunagar Weather History for the Previous 24 Hours

Scroll right to see more
 ConditionsComfort  
Time TempWeatherWind HumidityBarometerVisibility
4:30 PM
Mon, May 2
104 °FPassing clouds.5 mph31%29.65 "HgN/A
4:00 PM104 °FPassing clouds.2 mph31%29.68 "HgN/A
3:30 PM106 °FPassing clouds.7 mph30%29.68 "HgN/A
3:00 PM106 °FPassing clouds.3 mph30%29.68 "HgN/A
2:30 PM104 °FPassing clouds.7 mph33%29.68 "HgN/A
2:00 PM102 °FPassing clouds.3 mph35%29.71 "HgN/A
1:30 PM102 °FPassing clouds.5 mph35%29.74 "Hg5 mi
1:00 PM102 °FPassing clouds.5 mph35%29.74 "Hg4 mi
12:30 PM100 °FPassing clouds.3 mph40%29.77 "Hg4 mi
12:00 PM100 °FPassing clouds.5 mph40%29.77 "Hg4 mi
10:30 AM95 °FHaze.3 mph47%29.83 "Hg3 mi
10:00 AM93 °FHaze.6 mph49%29.83 "Hg3 mi
9:30 AM91 °FHaze.5 mph52%29.83 "Hg3 mi
8:30 AM90 °FHaze.7 mph59%29.83 "Hg3 mi
8:00 AM88 °FHaze.6 mph66%29.83 "Hg3 mi
7:30 AM86 °FHaze.3 mph70%29.80 "Hg3 mi
7:00 AM84 °FHaze.6 mph74%29.80 "Hg3 mi
6:00 AM82 °FFog.5 mph79%29.77 "Hg3 mi
5:30 AM82 °FFog.No wind79%29.77 "Hg3 mi
5:00 AM84 °FHaze.No wind74%29.77 "Hg3 mi
4:30 AM84 °FHaze.No wind74%29.77 "Hg3 mi
4:00 AM84 °FHaze.No wind74%29.77 "Hg3 mi
3:30 AM84 °FHaze.No wind74%29.77 "Hg3 mi
3:00 AM84 °FHaze.No wind74%29.77 "Hg3 mi
2:30 AM84 °FHaze.No wind74%29.77 "Hg3 mi
2:00 AM84 °FPassing clouds.No wind74%29.77 "Hg4 mi
1:30 AM86 °FPassing clouds.No wind70%29.77 "Hg4 mi
1:00 AM86 °FPassing clouds.3 mph70%29.77 "Hg4 mi
12:30 AM86 °FPassing clouds.3 mph70%29.77 "Hg4 mi
12:00 AM88 °FPassing clouds.3 mph66%29.77 "Hg4 mi
11:30 PM
Sun, May 1
88 °FPassing clouds.5 mph66%29.77 "Hg4 mi
11:00 PM88 °FPassing clouds.5 mph70%29.80 "Hg4 mi
10:30 PM88 °FPassing clouds.6 mph66%29.80 "Hg4 mi
10:00 PM90 °FPassing clouds.6 mph67%29.80 "Hg4 mi
9:30 PM90 °FPassing clouds.7 mph67%29.77 "Hg4 mi
9:00 PM90 °FPassing clouds.9 mph63%29.77 "Hg4 mi
8:30 PM91 °FPassing clouds.9 mph59%29.74 "Hg4 mi
8:00 PM91 °FPassing clouds.12 mph56%29.74 "Hg4 mi
7:30 PM93 °FPassing clouds.10 mph53%29.71 "Hg4 mi
7:00 PM93 °FPassing clouds.9 mph53%29.71 "Hg4 mi
6:30 PM95 °FPassing clouds.10 mph47%29.68 "Hg5 mi
6:00 PM99 °FPassing clouds.10 mph39%29.68 "HgN/A
5:30 PM100 °FPassing clouds.9 mph35%29.65 "HgN/A
5:00 PM102 °FPassing clouds.12 mph31%29.65 "HgN/A
Weather by CustomWeather, © 2016

See weather overviewHow to use our weather pages